Weather History for KAEX - May, 2014

Change the Weather History Date:

Sunday, May 18, 2014

  Actual Average Record
Temperature  
Mean Temperature 72 °F 75 °F  
Max Temperature 85 °F 86 °F 96 °F (1906)
Min Temperature 58 °F 64 °F 48 °F (2009)
Cooling Degree Days 7 10  
Month to date cooling degree days 124 145  
Year to date cooling degree days 260 304  
Growing Degree Days 20 (Base 50)    
Moisture  
Dew Point 60 °F    
Average Humidity 71    
Maximum Humidity 100    
Minimum Humidity 42    
Precipitation  
Precipitation 0.00 in 0.15 in 4.40 in (1953)
Month to date precipitation 1.34 2.53  
Year to date precipitation 15.42 21.81  
Sea Level Pressure  
Sea Level Pressure 30.12 in    
Wind  
Wind Speed 4 mph (SSE)    
Max Wind Speed 13 mph    
Max Gust Speed 18 mph    
Visibility 9 miles    
Events      
T = Trace of Precipitation, MM = Missing Value Source: NWS Daily Summary

Daily Weather History Graph

Daily Weather History Graph

Search for Another Location

Airport or City:

Trip Planner

Search our weather history database for the weather conditions in past years. The results will help you decide how hot, cold, wet, or windy it might be!

Date:

Astronomy

May. 18, 2014 Rise Set
Actual Time 6:12 AM CDT 8:01 PM CDT
Civil Twilight 5:45 AM CDT 8:28 PM CDT
Nautical Twilight 5:13 AM CDT 9:00 PM CDT
Astronomical Twilight 4:39 AM CDT 9:34 PM CDT
Moon 11:54 PM CDT (5/18) 9:59 AM CDT (5/18)
Length of Visible Light 14h 42m
Length of Day
13h 48m
Waning Gibbous, 81% of the Moon is Illuminated
May 18
Waning Gibbous
May 21
Last Quarter
May 28
New
Jun 5
First Quarter
Jun 12
Full

Hourly Weather History & Observations

Time (CDT) Temp. Heat Index Dew Point Humidity Pressure Visibility Wind Dir Wind Speed Gust Speed Precip Events Conditions
12:53 AM 62.1 °F - 60.1 °F 93% 30.12 in 10.0 mi Calm Calm - N/A   Clear
1:53 AM 62.1 °F - 60.1 °F 93% 30.12 in 10.0 mi Calm Calm - N/A   Clear
2:53 AM 62.1 °F - 61.0 °F 96% 30.12 in 7.0 mi SSE 3.5 mph - N/A   Clear
3:53 AM 62.1 °F - 61.0 °F 96% 30.12 in 7.0 mi Calm Calm - N/A   Clear
4:53 AM 61.0 °F - 60.1 °F 97% 30.13 in 6.0 mi Calm Calm - N/A   Clear
5:45 AM 59.0 °F - 59.0 °F 100% 30.12 in 1.8 mi SSE 3.5 mph - N/A   Partly Cloudy
5:53 AM 57.9 °F - 57.9 °F 100% 30.13 in 3.0 mi SSE 4.6 mph - N/A   Clear
6:53 AM 61.0 °F - 61.0 °F 100% 30.14 in 8.0 mi SE 3.5 mph - N/A   Clear
7:53 AM 66.0 °F - 64.0 °F 93% 30.16 in 5.0 mi Calm Calm - N/A   Partly Cloudy
8:53 AM 71.1 °F - 66.0 °F 84% 30.16 in 9.0 mi South 3.5 mph - N/A   Partly Cloudy
9:53 AM 75.0 °F - 64.9 °F 71% 30.17 in 10.0 mi Variable 5.8 mph - N/A   Scattered Clouds
10:01 AM 73.9 °F - 64.9 °F 73% 30.16 in 10.0 mi WSW 3.5 mph - N/A   Mostly Cloudy
10:14 AM 75.0 °F - 64.9 °F 71% 30.16 in 10.0 mi Variable 3.5 mph - N/A   Scattered Clouds
10:53 AM 78.1 °F - 63.0 °F 60% 30.17 in 10.0 mi Variable 4.6 mph - N/A   Partly Cloudy
11:53 AM 80.1 °F 80.7 °F 59.0 °F 48% 30.16 in 10.0 mi SW 6.9 mph - N/A   Clear
12:53 PM 80.1 °F 80.6 °F 57.9 °F 47% 30.14 in 10.0 mi South 4.6 mph - N/A   Mostly Cloudy
1:53 PM 82.0 °F 82.1 °F 59.0 °F 45% 30.12 in 10.0 mi Variable 5.8 mph - N/A   Mostly Cloudy
2:53 PM 82.9 °F 82.6 °F 57.9 °F 42% 30.10 in 10.0 mi Variable 3.5 mph - N/A   Mostly Cloudy
3:53 PM 84.0 °F 83.8 °F 59.0 °F 43% 30.09 in 10.0 mi ESE 6.9 mph - N/A   Mostly Cloudy
4:53 PM 84.0 °F 83.8 °F 59.0 °F 43% 30.08 in 10.0 mi Variable 4.6 mph - N/A   Scattered Clouds
5:53 PM 82.9 °F 82.4 °F 57.0 °F 41% 30.07 in 10.0 mi SE 8.1 mph - N/A   Clear
6:53 PM 81.0 °F 80.8 °F 55.9 °F 42% 30.07 in 10.0 mi SSE 5.8 mph - N/A   Clear
7:53 PM 77.0 °F - 57.9 °F 52% 30.08 in 10.0 mi South 5.8 mph - N/A   Clear
8:53 PM 73.0 °F - 57.9 °F 59% 30.09 in 10.0 mi Calm Calm - N/A   Clear
9:53 PM 71.1 °F - 60.1 °F 68% 30.10 in 10.0 mi SSE 4.6 mph - N/A   Clear
10:53 PM 71.1 °F - 61.0 °F 70% 30.11 in 10.0 mi South 5.8 mph - N/A   Clear
11:53 PM 69.1 °F - 60.1 °F 73% 30.12 in 10.0 mi SSW 5.8 mph - N/A   Clear